Time,TemperatureF,DewpointF,PressureIn,WindDirection,WindDirectionDegrees,WindSpeedMPH,WindSpeedGustMPH,Humidity,HourlyPrecipIn,Conditions,Clouds,dailyrainin,SoftwareType,DateUTC
2013-04-11 00:02:00,47.0,46.0,-100.00,NE,50,16.0,24.0,99,-99.99,,,-99.99,,2013-04-11 05:02:00,
2013-04-11 00:13:00,47.0,47.0,-100.00,NE,55,19.0,24.0,99,-99.99,,,-99.99,,2013-04-11 05:13:00,
2013-04-11 00:22:00,48.0,47.0,-100.00,ENE,60,14.0,29.0,99,-99.99,,,-99.99,,2013-04-11 05:22:00,
2013-04-11 00:32:00,48.0,47.0,-100.00,ENE,60,14.0,29.0,99,-99.99,,,-99.99,,2013-04-11 05:32:00,
2013-04-11 00:42:00,48.0,48.0,-100.00,NE,50,17.0,24.0,99,-99.99,,,-99.99,,2013-04-11 05:42:00,
2013-04-11 00:52:00,48.0,48.0,-100.00,ENE,65,14.0,23.0,99,-99.99,,,-99.99,,2013-04-11 05:52:00,
2013-04-11 01:02:00,48.0,48.0,-100.00,ENE,65,14.0,23.0,99,-99.99,,,-99.99,,2013-04-11 06:02:00,
2013-04-11 01:12:00,49.0,48.0,-100.00,SSE,165,1.0,11.0,99,-99.99,,,-99.99,,2013-04-11 06:12:00,
2013-04-11 01:22:00,49.0,49.0,-100.00,SSE,150,4.0,7.0,99,-99.99,,,-99.99,,2013-04-11 06:22:00,
2013-04-11 01:32:00,49.0,49.0,-100.00,SSE,150,4.0,7.0,99,-99.99,,,-99.99,,2013-04-11 06:32:00,
2013-04-11 01:42:00,49.0,49.0,-100.00,SE,135,7.0,12.0,99,-99.99,,,-99.99,,2013-04-11 06:42:00,
2013-04-11 01:52:00,49.0,49.0,-100.00,South,175,4.0,9.0,99,-99.99,,,-99.99,,2013-04-11 06:52:00,
2013-04-11 02:02:00,49.0,49.0,-100.00,South,175,4.0,9.0,99,-99.99,,,-99.99,,2013-04-11 07:02:00,
2013-04-11 02:12:00,50.0,49.0,-100.00,SSE,160,8.0,14.0,99,-99.99,,,-99.99,,2013-04-11 07:12:00,
2013-04-11 02:22:00,50.0,50.0,-100.00,South,180,6.0,10.0,99,-99.99,,,-99.99,,2013-04-11 07:22:00,
2013-04-11 02:32:00,50.0,50.0,-100.00,South,180,6.0,10.0,99,-99.99,,,-99.99,,2013-04-11 07:32:00,
2013-04-11 02:42:00,50.0,50.0,-100.00,South,175,4.0,9.0,99,-99.99,,,-99.99,,2013-04-11 07:42:00,
2013-04-11 02:52:00,50.0,50.0,-100.00,SSE,150,4.0,9.0,99,-99.99,,,-99.99,,2013-04-11 07:52:00,
2013-04-11 03:03:00,50.0,50.0,-100.00,SSE,150,4.0,9.0,99,-99.99,,,-99.99,,2013-04-11 08:03:00,
2013-04-11 03:12:00,50.0,50.0,-100.00,SSE,160,4.0,8.0,99,-99.99,,,-99.99,,2013-04-11 08:12:00,
2013-04-11 03:22:00,50.0,50.0,-100.00,South,175,4.0,8.0,99,-99.99,,,-99.99,,2013-04-11 08:22:00,
2013-04-11 03:32:00,50.0,50.0,-100.00,South,175,4.0,8.0,99,-99.99,,,-99.99,,2013-04-11 08:32:00,
2013-04-11 03:42:00,50.0,50.0,-100.00,SSW,200,1.0,4.0,99,-99.99,,,-99.99,,2013-04-11 08:42:00,
2013-04-11 03:52:00,50.0,50.0,-100.00,SSW,210,4.0,6.0,99,-99.99,,,-99.99,,2013-04-11 08:52:00,
2013-04-11 04:02:00,50.0,50.0,-100.00,SSW,210,4.0,6.0,99,-99.99,,,-99.99,,2013-04-11 09:02:00,
2013-04-11 04:12:00,50.0,50.0,-100.00,SSW,200,4.0,5.0,99,-99.99,,,-99.99,,2013-04-11 09:12:00,
2013-04-11 04:22:00,50.0,50.0,-100.00,SSE,150,2.0,4.0,99,-99.99,,,-99.99,,2013-04-11 09:22:00,
2013-04-11 04:33:00,50.0,50.0,-100.00,SSE,150,2.0,4.0,99,-99.99,,,-99.99,,2013-04-11 09:33:00,
2013-04-11 04:43:00,50.0,50.0,-100.00,SSE,150,2.0,4.0,99,-99.99,,,-99.99,,2013-04-11 09:43:00,
2013-04-11 04:53:00,51.0,50.0,-100.00,South,170,1.0,6.0,99,-99.99,,,-99.99,,2013-04-11 09:53:00,
2013-04-11 05:02:00,51.0,50.0,-100.00,South,170,1.0,6.0,99,-99.99,,,-99.99,,2013-04-11 10:02:00,
2013-04-11 05:12:00,51.0,51.0,-100.00,WSW,245,7.0,11.0,99,-99.99,,,-99.99,,2013-04-11 10:12:00,
2013-04-11 05:23:00,50.0,50.0,-100.00,WSW,240,6.0,14.0,99,-99.99,,,-99.99,,2013-04-11 10:23:00,
2013-04-11 05:32:00,50.0,50.0,-100.00,WSW,240,6.0,14.0,99,-99.99,,,-99.99,,2013-04-11 10:32:00,
2013-04-11 05:42:00,50.0,50.0,-100.00,WSW,240,6.0,14.0,99,-99.99,,,-99.99,,2013-04-11 10:42:00,
2013-04-11 05:52:00,49.0,49.0,-100.00,SW,225,5.0,14.0,99,-99.99,,,-99.99,,2013-04-11 10:52:00,
2013-04-11 06:02:00,49.0,49.0,-100.00,SW,225,5.0,14.0,99,-99.99,,,-99.99,,2013-04-11 11:02:00,
2013-04-11 06:12:00,49.0,48.0,-100.00,WSW,240,7.0,11.0,99,-99.99,,,-99.99,,2013-04-11 11:12:00,
2013-04-11 06:23:00,48.0,48.0,-100.00,WSW,245,7.0,14.0,99,-99.99,,,-99.99,,2013-04-11 11:23:00,
2013-04-11 06:32:00,48.0,48.0,-100.00,WSW,245,7.0,14.0,99,-99.99,,,-99.99,,2013-04-11 11:32:00,
2013-04-11 06:42:00,48.0,48.0,-100.00,SW,235,7.0,16.0,99,-99.99,,,-99.99,,2013-04-11 11:42:00,
2013-04-11 06:52:00,48.0,47.0,-100.00,SW,230,10.0,16.0,99,-99.99,,,-99.99,,2013-04-11 11:52:00,
2013-04-11 07:02:00,48.0,47.0,-100.00,SW,230,10.0,16.0,99,-99.99,,,-99.99,,2013-04-11 12:02:00,
2013-04-11 07:12:00,47.0,47.0,-100.00,WSW,240,9.0,14.0,99,-99.99,,,-99.99,,2013-04-11 12:12:00,
2013-04-11 07:22:00,47.0,47.0,-100.00,SW,225,7.0,13.0,99,-99.99,,,-99.99,,2013-04-11 12:22:00,
2013-04-11 07:32:00,47.0,47.0,-100.00,SW,225,7.0,13.0,99,-99.99,,,-99.99,,2013-04-11 12:32:00,
2013-04-11 07:42:00,47.0,47.0,-100.00,WSW,240,6.0,15.0,99,-99.99,,,-99.99,,2013-04-11 12:42:00,
2013-04-11 07:52:00,47.0,47.0,-100.00,WSW,240,6.0,15.0,99,-99.99,,,-99.99,,2013-04-11 12:52:00,
2013-04-11 08:02:00,47.0,47.0,-100.00,WSW,240,6.0,15.0,99,-99.99,,,-99.99,,2013-04-11 13:02:00,
2013-04-11 08:12:00,47.0,46.0,-100.00,WSW,245,6.0,16.0,99,-99.99,,,-99.99,,2013-04-11 13:12:00,
2013-04-11 08:23:00,47.0,47.0,-100.00,WSW,240,4.0,11.0,99,-99.99,,,-99.99,,2013-04-11 13:23:00,
2013-04-11 08:32:00,47.0,47.0,-100.00,WSW,240,4.0,11.0,99,-99.99,,,-99.99,,2013-04-11 13:32:00,
2013-04-11 08:43:00,47.0,46.0,-100.00,WSW,250,6.0,12.0,99,-99.99,,,-99.99,,2013-04-11 13:43:00,
2013-04-11 08:54:00,47.0,46.0,-100.00,West,260,6.0,12.0,99,-99.99,,,-99.99,,2013-04-11 13:54:00,
2013-04-11 09:02:00,47.0,46.0,-100.00,West,260,6.0,12.0,99,-99.99,,,-99.99,,2013-04-11 14:02:00,
2013-04-11 09:12:00,47.0,47.0,-100.00,WSW,245,3.0,11.0,99,-99.99,,,-99.99,,2013-04-11 14:12:00,
2013-04-11 09:22:00,47.0,47.0,-100.00,WSW,240,6.0,11.0,99,-99.99,,,-99.99,,2013-04-11 14:22:00,
2013-04-11 09:32:00,47.0,47.0,-100.00,WSW,240,6.0,11.0,99,-99.99,,,-99.99,,2013-04-11 14:32:00,
2013-04-11 09:42:00,48.0,47.0,-100.00,WSW,240,4.0,9.0,99,-99.99,,,-99.99,,2013-04-11 14:42:00,
2013-04-11 09:53:00,48.0,47.0,-100.00,WSW,240,10.0,15.0,99,-99.99,,,-99.99,,2013-04-11 14:53:00,
2013-04-11 10:02:00,48.0,47.0,-100.00,WSW,240,10.0,15.0,99,-99.99,,,-99.99,,2013-04-11 15:02:00,
2013-04-11 10:12:00,48.0,47.0,-100.00,WSW,240,10.0,15.0,99,-99.99,,,-99.99,,2013-04-11 15:12:00,
2013-04-11 11:53:00,48.0,48.0,-100.00,WSW,245,7.0,14.0,97,-99.99,,,-99.99,,2013-04-11 16:53:00,
2013-04-11 12:02:00,48.0,48.0,-100.00,WSW,245,7.0,14.0,97,-99.99,,,-99.99,,2013-04-11 17:02:00,
2013-04-11 12:12:00,48.0,47.0,-100.00,WSW,240,9.0,16.0,97,-99.99,,,-99.99,,2013-04-11 17:12:00,
2013-04-11 12:23:00,47.0,47.0,-100.00,WSW,240,8.0,17.0,97,-99.99,,,-99.99,,2013-04-11 17:23:00,
2013-04-11 12:33:00,47.0,47.0,-100.00,WSW,240,8.0,17.0,97,-99.99,,,-99.99,,2013-04-11 17:33:00,
2013-04-11 12:43:00,47.0,46.0,-100.00,WSW,240,8.0,16.0,97,-99.99,,,-99.99,,2013-04-11 17:43:00,
2013-04-11 12:53:00,47.0,46.0,-100.00,WSW,245,9.0,13.0,96,-99.99,,,-99.99,,2013-04-11 17:53:00,
2013-04-11 13:03:00,47.0,46.0,-100.00,WSW,245,9.0,13.0,96,-99.99,,,-99.99,,2013-04-11 18:03:00,
2013-04-11 13:13:00,48.0,46.0,-100.00,SW,230,9.0,14.0,93,-99.99,,,-99.99,,2013-04-11 18:13:00,
2013-04-11 13:23:00,47.0,46.0,-100.00,SSW,210,7.0,19.0,95,-99.99,,,-99.99,,2013-04-11 18:23:00,
2013-04-11 13:33:00,47.0,46.0,-100.00,SSW,210,7.0,19.0,95,-99.99,,,-99.99,,2013-04-11 18:33:00,
2013-04-11 13:42:00,47.0,45.0,-100.00,SSW,200,7.0,19.0,91,-99.99,,,-99.99,,2013-04-11 18:42:00,
2013-04-11 13:53:00,47.0,45.0,-100.00,SW,215,9.0,21.0,91,-99.99,,,-99.99,,2013-04-11 18:53:00,
2013-04-11 14:03:00,47.0,45.0,-100.00,SW,215,9.0,21.0,91,-99.99,,,-99.99,,2013-04-11 19:03:00,
2013-04-11 14:14:00,46.0,44.0,-100.00,SW,235,11.0,19.0,90,-99.99,,,-99.99,,2013-04-11 19:14:00,
2013-04-11 14:22:00,46.0,44.0,-100.00,SSW,205,11.0,17.0,90,-99.99,,,-99.99,,2013-04-11 19:22:00,
2013-04-11 14:32:00,46.0,44.0,-100.00,SSW,205,11.0,17.0,90,-99.99,,,-99.99,,2013-04-11 19:32:00,
2013-04-11 14:43:00,45.0,43.0,-100.00,SSW,210,11.0,26.0,91,-99.99,,,-99.99,,2013-04-11 19:43:00,
2013-04-11 14:53:00,45.0,41.0,-100.00,SSW,200,14.0,23.0,84,-99.99,,,-99.99,,2013-04-11 19:53:00,
2013-04-11 15:02:00,45.0,41.0,-100.00,SSW,200,14.0,23.0,84,-99.99,,,-99.99,,2013-04-11 20:02:00,
2013-04-11 15:13:00,46.0,42.0,-100.00,SW,225,9.0,20.0,83,-99.99,,,-99.99,,2013-04-11 20:13:00,
2013-04-11 15:22:00,46.0,41.0,-100.00,SW,230,7.0,16.0,81,-99.99,,,-99.99,,2013-04-11 20:22:00,
2013-04-11 15:33:00,46.0,41.0,-100.00,SW,230,7.0,16.0,81,-99.99,,,-99.99,,2013-04-11 20:33:00,
2013-04-11 15:42:00,46.0,40.0,-100.00,SW,220,6.0,16.0,80,-99.99,,,-99.99,,2013-04-11 20:42:00,
2013-04-11 15:52:00,46.0,41.0,-100.00,SSW,210,6.0,14.0,80,-99.99,,,-99.99,,2013-04-11 20:52:00,
2013-04-11 16:03:00,46.0,41.0,-100.00,SSW,210,6.0,14.0,80,-99.99,,,-99.99,,2013-04-11 21:03:00,
2013-04-11 16:12:00,47.0,40.0,-100.00,SW,235,11.0,17.0,77,-99.99,,,-99.99,,2013-04-11 21:12:00,
2013-04-11 16:22:00,46.0,40.0,-100.00,SW,235,9.0,16.0,79,-99.99,,,-99.99,,2013-04-11 21:22:00,
2013-04-11 16:33:00,46.0,40.0,-100.00,SW,235,9.0,16.0,79,-99.99,,,-99.99,,2013-04-11 21:33:00,
2013-04-11 16:42:00,46.0,39.0,-100.00,WSW,245,14.0,21.0,77,-99.99,,,-99.99,,2013-04-11 21:42:00,
2013-04-11 16:54:00,45.0,39.0,-100.00,SW,230,14.0,26.0,81,-99.99,,,-99.99,,2013-04-11 21:54:00,
2013-04-11 17:03:00,45.0,39.0,-100.00,SW,230,14.0,26.0,81,-99.99,,,-99.99,,2013-04-11 22:03:00,
2013-04-11 17:13:00,43.0,38.0,-100.00,WSW,250,11.0,21.0,84,-99.99,,,-99.99,,2013-04-11 22:13:00,
2013-04-11 17:23:00,43.0,39.0,-100.00,WSW,250,12.0,23.0,84,-99.99,,,-99.99,,2013-04-11 22:23:00,
2013-04-11 17:33:00,43.0,39.0,-100.00,WSW,250,12.0,23.0,84,-99.99,,,-99.99,,2013-04-11 22:33:00,
2013-04-11 17:44:00,43.0,38.0,-100.00,WSW,245,13.0,24.0,81,-99.99,,,-99.99,,2013-04-11 22:44:00,
2013-04-11 17:53:00,43.0,37.0,-100.00,WSW,240,11.0,20.0,80,-99.99,,,-99.99,,2013-04-11 22:53:00,
2013-04-11 18:03:00,43.0,37.0,-100.00,WSW,240,11.0,20.0,80,-99.99,,,-99.99,,2013-04-11 23:03:00,
2013-04-11 18:12:00,42.0,37.0,-100.00,WSW,245,10.0,20.0,80,-99.99,,,-99.99,,2013-04-11 23:12:00,
2013-04-11 18:23:00,43.0,36.0,-100.00,WSW,250,5.0,17.0,78,-99.99,,,-99.99,,2013-04-11 23:23:00,
2013-04-11 18:32:00,43.0,36.0,-100.00,WSW,250,5.0,17.0,78,-99.99,,,-99.99,,2013-04-11 23:32:00,
2013-04-11 18:42:00,43.0,36.0,-100.00,SW,225,6.0,13.0,77,-99.99,,,-99.99,,2013-04-11 23:42:00,
2013-04-11 18:53:00,43.0,36.0,-100.00,WSW,240,8.0,16.0,76,-99.99,,,-99.99,,2013-04-11 23:53:00,
2013-04-11 19:02:00,43.0,36.0,-100.00,WSW,240,8.0,16.0,76,-99.99,,,-99.99,,2013-04-12 00:02:00,
2013-04-11 19:12:00,42.0,36.0,-100.00,SW,225,11.0,21.0,77,-99.99,,,-99.99,,2013-04-12 00:12:00,
2013-04-11 19:22:00,42.0,36.0,-100.00,WSW,240,11.0,21.0,78,-99.99,,,-99.99,,2013-04-12 00:22:00,
2013-04-11 19:32:00,42.0,36.0,-100.00,WSW,240,11.0,21.0,78,-99.99,,,-99.99,,2013-04-12 00:32:00,
2013-04-11 19:42:00,42.0,36.0,-100.00,WSW,240,11.0,21.0,78,-99.99,,,-99.99,,2013-04-12 00:42:00,
2013-04-11 19:53:00,41.0,36.0,-100.00,SW,230,7.0,15.0,80,-99.99,,,-99.99,,2013-04-12 00:53:00,
2013-04-11 20:02:00,41.0,36.0,-100.00,SW,230,7.0,15.0,80,-99.99,,,-99.99,,2013-04-12 01:02:00,
2013-04-11 20:12:00,41.0,36.0,-100.00,WSW,245,11.0,20.0,81,-99.99,,,-99.99,,2013-04-12 01:12:00,
2013-04-11 20:22:00,41.0,36.0,-100.00,SW,235,8.0,18.0,82,-99.99,,,-99.99,,2013-04-12 01:22:00,
2013-04-11 20:32:00,41.0,36.0,-100.00,SW,235,8.0,18.0,82,-99.99,,,-99.99,,2013-04-12 01:32:00,
2013-04-11 20:42:00,41.0,36.0,-100.00,SW,230,8.0,19.0,82,-99.99,,,-99.99,,2013-04-12 01:42:00,
2013-04-11 20:52:00,40.0,35.0,-100.00,WSW,250,13.0,24.0,81,-99.99,,,-99.99,,2013-04-12 01:52:00,
2013-04-11 21:03:00,40.0,35.0,-100.00,WSW,250,13.0,24.0,81,-99.99,,,-99.99,,2013-04-12 02:03:00,
2013-04-11 21:12:00,40.0,35.0,-100.00,SW,230,8.0,17.0,82,-99.99,,,-99.99,,2013-04-12 02:12:00,
2013-04-11 21:22:00,40.0,36.0,-100.00,WSW,250,9.0,19.0,84,-99.99,,,-99.99,,2013-04-12 02:22:00,
2013-04-11 21:32:00,40.0,36.0,-100.00,WSW,250,9.0,19.0,84,-99.99,,,-99.99,,2013-04-12 02:32:00,
2013-04-11 21:42:00,40.0,35.0,-100.00,SW,220,10.0,19.0,83,-99.99,,,-99.99,,2013-04-12 02:42:00,
2013-04-11 21:52:00,40.0,35.0,-100.00,SW,215,8.0,14.0,83,-99.99,,,-99.99,,2013-04-12 02:52:00,
2013-04-11 22:02:00,40.0,35.0,-100.00,SW,215,8.0,14.0,83,-99.99,,,-99.99,,2013-04-12 03:02:00,
2013-04-11 22:12:00,40.0,35.0,-100.00,SW,230,6.0,14.0,83,-99.99,,,-99.99,,2013-04-12 03:12:00,
2013-04-11 22:22:00,40.0,35.0,-100.00,SW,220,6.0,14.0,82,-99.99,,,-99.99,,2013-04-12 03:22:00,
2013-04-11 22:33:00,40.0,35.0,-100.00,SW,220,6.0,14.0,82,-99.99,,,-99.99,,2013-04-12 03:33:00,
2013-04-11 22:43:00,40.0,34.0,-100.00,SW,225,8.0,14.0,80,-99.99,,,-99.99,,2013-04-12 03:43:00,
2013-04-11 22:53:00,39.0,34.0,-100.00,SW,230,8.0,12.0,80,-99.99,,,-99.99,,2013-04-12 03:53:00,
2013-04-11 23:03:00,39.0,34.0,-100.00,SW,230,8.0,12.0,80,-99.99,,,-99.99,,2013-04-12 04:03:00,
2013-04-11 23:13:00,40.0,34.0,-100.00,SW,235,8.0,15.0,79,-99.99,,,-99.99,,2013-04-12 04:13:00,
2013-04-11 23:23:00,40.0,33.0,-100.00,SW,225,7.0,18.0,78,-99.99,,,-99.99,,2013-04-12 04:23:00,
2013-04-11 23:33:00,40.0,33.0,-100.00,SW,225,7.0,18.0,78,-99.99,,,-99.99,,2013-04-12 04:33:00,
2013-04-11 23:43:00,39.0,33.0,-100.00,SW,220,9.0,14.0,78,-99.99,,,-99.99,,2013-04-12 04:43:00,
2013-04-11 23:53:00,39.0,33.0,-100.00,SW,225,8.0,16.0,78,-99.99,,,-99.99,,2013-04-12 04:53:00,